This demonstration page uses our WeatherBlox Daily Observations layout. Learn more.

39.92423, -83.80882

Hourly Observations for June 18, 2019

Temp ( °F °C ) Dew Point ( °F °C ) Humidity (%) Winds ( mph kmh ) Pressure ( in mb ) Visibility ( mi km ) Precip ( " mm )
12:16 am 00:16 Cloudy 66 19 66 19 100 100 SSW 3 6 29.97 1015 10 16.0934 0.03 0.762
12:35 am 00:35 Cloudy 66 19 66 19 100 100 S 6 9 29.97 1015 10 16.0934 0.06 1.524
12:45 am 00:45 Cloudy 66 19 66 19 100 100 S 5 7 29.97 1015 10 16.0934 0.07 1.778
12:56 am 00:56 Mostly Cloudy 66 18.9 66 18.9 100 100 VRB 3 6 29.97 1015 10 16.0934 0.08 2.032
1:56 am 01:56 Partly Cloudy with Mist and Fog 65 18.3 65 18.3 100 100 Calm 29.96 1015 4 6.43736 0.06 1.524
1:59 am 01:59 Partly Cloudy with Mist and Fog 64 18 64 18 100 100 Calm 29.95 1014 1.75 2.816345 0 0
2:12 am 02:12 Mostly Cloudy with Mist and Fog 64 18 64 18 100 100 Calm 29.95 1014 3 4.82802 0.01 0.254
2:34 am 02:34 Mostly Cloudy with Mist and Fog 64 18 64 18 100 100 WSW 3 6 29.95 1014 4 6.43736 0.01 0.254
2:56 am 02:56 Mostly Cloudy with Mist and Fog 65 18.3 65 18.3 100 100 SW 6 9 29.96 1014 2 3.21868 0.01 0.254
3:05 am 03:05 Mostly Cloudy with Mist and Fog 64 18 64 18 100 100 SW 7 11 29.95 1014 1 1.60934 0 0
3:11 am 03:11 Cloudy with Fog 64 18 64 18 100 100 SW 7 11 29.94 1014 0.5 0.80467 0 0
3:24 am 03:24 Cloudy with Mist and Fog 64 18 64 18 100 100 SW 8 13 29.94 1014 1 1.60934 0 0
3:41 am 03:41 Cloudy with Mist and Fog 64 18 64 18 100 100 SW 9 15 29.94 1014 0.75 1.207005 0 0
3:56 am 03:56 Cloudy with Fog 65 18.3 65 18.3 100 100 WSW 9 15 29.94 1014 0.5 0.80467 0 0
4:13 am 04:13 Cloudy with Fog 64 18 64 18 100 100 W 5 7 29.93 1014 0.25 0.402335 0 0
4:56 am 04:56 Cloudy with Fog 65 18.3 65 18.3 100 100 SSW 6 9 29.95 1014 0.5 0.80467 0 0
5:09 am 05:09 Cloudy with Mist and Fog 64 18 64 18 100 100 SSW 5 7 29.94 1014 1 1.60934 0 0
5:18 am 05:18 Cloudy with Mist and Fog 64 18 64 18 100 100 SW 6 9 29.95 1014 1.75 2.816345 0 0
5:25 am 05:25 Cloudy with Mist and Fog 64 18 64 18 100 100 SW 5 7 29.94 1014 2 3.21868 0 0
5:43 am 05:43 Cloudy with Mist and Fog 64 18 64 18 100 100 SSW 3 6 29.95 1014 3 4.82802 0 0
5:51 am 05:51 Cloudy with Mist and Fog 64 18 64 18 100 100 Calm 29.95 1014 2.5 4.02335 0 0
5:52 am 05:52 Cloudy with Mist and Fog 65 18.3 65 18.3 100 100 Calm 29.96 1014 2.5 4.02335 0 0
6:04 am 06:04 Cloudy with Mist and Fog 64 18 64 18 100 100 Calm 29.95 1014 2 3.21868 0 0
6:06 am 06:06 Cloudy with Mist and Fog 64 18 64 18 100 100 SW 3 6 29.95 1014 1.75 2.816345 0 0
6:16 am 06:16 Cloudy with Mist and Fog 64 18 64 18 100 100 W 3 6 29.94 1014 2 3.21868 0 0
6:54 am 06:54 Cloudy with Mist and Fog 64 18 64 18 100 100 W 3 6 29.94 1014 3 4.82802 0 0
6:56 am 06:56 Cloudy with Mist and Fog 65 18.3 65 18.3 100 100 Calm 29.95 1014 3 4.82802 0 0
7:20 am 07:20 Cloudy with Light Rain 64 18 64 18 100 100 Calm 29.94 1014 2.5 4.02335 0 0.0254
7:38 am 07:38 Mostly Cloudy with Mist and Fog 64 18 64 18 100 100 Calm 29.94 1014 3 4.82802 0 0.0254
7:48 am 07:48 Partly Cloudy with Mist and Fog 66 19 66 19 100 100 Calm 29.94 1014 3 4.82802 0 0.0254
7:56 am 07:56 Partly Cloudy with Mist and Fog 66 18.9 66 18.9 100 100 Calm 29.95 1014 3 4.82802 0 0.0254
8:12 am 08:12 Mostly Cloudy with Mist and Fog 66 19 66 19 100 100 SW 3 6 29.94 1014 3 4.82802 0 0
8:56 am 08:56 Cloudy with Mist and Fog 67 19.4 67 19.4 100 100 WSW 5 7 29.97 1015 3 4.82802 0 0
9:17 am 09:17 Cloudy with Mist and Fog 66 19 66 19 100 100 SW 6 9 29.96 1014 5 8.0467 0 0
9:56 am 09:56 Cloudy 68 20 68 20 100 100 Calm 29.97 1015 8 12.87472 0 0
10:48 am 10:48 Cloudy 68 20 68 20 100 100 Calm 29.94 1014 9 14.48406 0 0
10:56 am 10:56 Cloudy 69 20.6 69 20.6 100 100 Calm 29.96 1014 10 16.0934 0 0
12:48 pm 12:48 Cloudy 73 23 68 20 83 83 Calm 29.91 1013 10 16.0934 0 0
12:56 pm 12:56 Cloudy 74 23.3 68 20 82 82 Calm 29.93 1014 10 16.0934 0 0
1:34 pm 13:34 Cloudy 73 23 70 21 89 89 Calm 29.9 1013 10 16.0934 0 0
1:46 pm 13:46 Cloudy 73 23 70 21 89 89 Calm 29.9 1013 10 16.0934 0 0
1:56 pm 13:56 Cloudy 74 23.3 69 20.6 85 85 S 5 7 29.92 1013 10 16.0934 0 0
2:33 pm 14:33 Mostly Cloudy 73 23 70 21 89 89 S 5 7 29.89 1012 10 16.0934 0 0
2:56 pm 14:56 Mostly Cloudy 76 24.4 70 21.1 82 82 VRB 3 6 29.9 1013 10 16.0934 0 0
3:56 pm 15:56 Mostly Sunny 77 25 71 21.7 82 82 SSE 7 11 29.89 1012 10 16.0934 0 0
4:56 pm 16:56 Mostly Cloudy 77 25 71 21.7 82 82 S 6 9 29.87 1011 10 16.0934 0 0
5:56 pm 17:56 Partly Cloudy 76 24.4 69 20.6 79 79 SSW 5 7 29.85 1011 10 16.0934 0 0
6:56 pm 18:56 Mostly Cloudy with Nearby Thunderstorms 75 23.9 71 21.7 88 88 WSW 7 11 29.85 1011 10 16.0934 0 0
7:10 pm 19:10 Mostly Cloudy 75 24 70 21 83 83 WSW 7 11 29.82 1010 10 16.0934 0 0
7:19 pm 19:19 Mostly Cloudy with Nearby Thunderstorms 75 24 70 21 83 83 WSW 6 9 29.83 1010 10 16.0934 0 0
7:34 pm 19:34 Mostly Cloudy 75 24 72 22 89 89 NNW 9 15 29.83 1010 10 16.0934 0 0
7:56 pm 19:56 Cloudy with Light Rain 72 22.2 71 21.7 97 97 N 10 17 29.86 1011 10 16.0934 0 0.0254
8:23 pm 20:23 Cloudy 72 22 72 22 100 100 NNE 7 11 29.83 1010 10 16.0934 0 0.0254
8:56 pm 20:56 Cloudy with Light Rain 71 21.7 70 21.1 96 96 NE 3 6 29.87 1011 10 16.0934 0 0.0254
9:32 pm 21:32 Mostly Clear 70 21 70 21 100 100 Calm 29.84 1010 10 16.0934 0.01 0.254
9:56 pm 21:56 Partly Cloudy 69 20.6 69 20.6 100 100 Calm 29.87 1011 10 16.0934 0.01 0.254
10:56 pm 22:56 Mostly Cloudy 69 20.6 69 20.6 100 100 S 3 6 29.87 1012 10 16.0934 0 0
11:56 pm 23:56 Cloudy 68 20 68 20 100 100 E 3 6 29.87 1012 7 11.26538 0 0

Powered by AerisWeather